Weather History for Chandler, OK

Change the Weather History Date:

Sunday, February 24, 2013

  Actual Average (KCUH) Record (KCUH)
Temperature  
Mean Temperature 48 °F -  
Max Temperature 64 °F 57 °F 83 °F (1956)
Min Temperature 32 °F 32 °F 6 °F (1965)
Degree Days  
Heating Degree Days 17    
Moisture  
Dew Point 37 °F    
Average Humidity 68    
Maximum Humidity 93    
Minimum Humidity 42    
Precipitation  
Precipitation 0.00 in - - ()
Sea Level Pressure  
Sea Level Pressure 29.83 in    
Wind  
Wind Speed 10 mph (SE)    
Max Wind Speed 23 mph    
Max Gust Speed 30 mph    
Visibility 10 miles    
Events      
Averages and records for this station are not official NWS values.
T = Trace of Precipitation, MM = Missing Value Source: NWS Daily Summary

Daily Weather History Graph

Daily Weather History Graph

Search for Another Location

Airport:

Trip Planner

Search our weather history database for the weather conditions in past years. The results will help you decide how hot, cold, wet, or windy it might be!

Date:

Astronomy

Feb. 24, 2013 Rise Set
Actual Time 7:03 AM CST 6:18 PM CST
Civil Twilight 6:37 AM CST 6:43 PM CST
Nautical Twilight 6:07 AM CST 7:13 PM CST
Astronomical Twilight 5:38 AM CST 7:43 PM CST
Moon 5:30 PM CST (2/24) 6:00 AM CST (2/24)
Length of Visible Light 12h 06m
Length of Day
11h 14m
Waxing Gibbous, 99% of the Moon is Illuminated
Feb 24
Waxing Gibbous
Feb 25
Full
Mar 4
Last Quarter
Mar 11
New
Mar 19
First Quarter

Hourly Weather History & Observations

Time (CST) Temp. Windchill Dew Point Humidity Pressure Visibility Wind Dir Wind Speed Gust Speed Precip Events Conditions
12:15 AM 33.8 °F 25.8 °F 30.2 °F 87% 29.92 in 10.0 mi ESE 10.4 mph - N/A   Clear
12:55 AM 32.0 °F 25.6 °F 30.2 °F 93% 29.91 in 10.0 mi ESE 6.9 mph - N/A   Clear
1:15 AM 33.8 °F 27.0 °F 30.2 °F 87% 29.92 in 10.0 mi ESE 8.1 mph - N/A   Clear
1:35 AM 32.0 °F 25.6 °F 30.2 °F 93% 29.91 in 10.0 mi ESE 6.9 mph - N/A   Clear
1:55 AM 32.0 °F 26.4 °F 30.2 °F 93% 29.92 in 10.0 mi SE 5.8 mph - N/A   Clear
2:15 AM 32.0 °F 25.6 °F 30.2 °F 93% 29.92 in 10.0 mi SE 6.9 mph - N/A   Clear
2:35 AM 32.0 °F 24.2 °F 30.2 °F 93% 29.90 in 10.0 mi ESE 9.2 mph - N/A   Clear
2:55 AM 32.0 °F 24.8 °F 30.2 °F 93% 29.89 in 10.0 mi ESE 8.1 mph - N/A   Clear
3:15 AM 32.0 °F 24.2 °F 30.2 °F 93% 29.88 in 10.0 mi ESE 9.2 mph - N/A   Clear
3:35 AM 32.0 °F 24.8 °F 28.4 °F 87% 29.88 in 10.0 mi SE 8.1 mph - N/A   Clear
4:15 AM 32.0 °F 26.4 °F 30.2 °F 93% 29.88 in 10.0 mi SE 5.8 mph - N/A   Clear
4:35 AM 32.0 °F 26.4 °F 30.2 °F 93% 29.88 in 10.0 mi SE 5.8 mph - N/A   Clear
4:55 AM 32.0 °F 24.8 °F 30.2 °F 93% 29.88 in 10.0 mi ESE 8.1 mph - N/A   Clear
5:15 AM 32.0 °F 24.8 °F 30.2 °F 93% 29.88 in 10.0 mi ESE 8.1 mph - N/A   Clear
5:35 AM 32.0 °F 25.6 °F 30.2 °F 93% 29.88 in 10.0 mi East 6.9 mph - N/A   Clear
5:55 AM 32.0 °F 26.4 °F 30.2 °F 93% 29.88 in 10.0 mi ESE 5.8 mph - N/A   Clear
6:15 AM 32.0 °F 27.5 °F 30.2 °F 93% 29.89 in 10.0 mi SE 4.6 mph - N/A   Clear
6:35 AM 32.0 °F 25.6 °F 30.2 °F 93% 29.90 in 10.0 mi SE 6.9 mph - N/A   Clear
7:15 AM 32.0 °F 26.4 °F 30.2 °F 93% 29.90 in 10.0 mi SE 5.8 mph - N/A   Clear
7:35 AM 32.0 °F 25.6 °F 30.2 °F 93% 29.90 in 10.0 mi SE 6.9 mph - N/A   Clear
7:55 AM 32.0 °F 26.4 °F 30.2 °F 93% 29.90 in 10.0 mi SE 5.8 mph - N/A   Clear
8:15 AM 33.8 °F 29.6 °F 32.0 °F 93% 29.91 in 10.0 mi SE 4.6 mph - N/A   Clear
8:35 AM 35.6 °F 29.2 °F 32.0 °F 87% 29.91 in 10.0 mi SE 8.1 mph - N/A   Clear
8:55 AM 39.2 °F 32.5 °F 33.8 °F 81% 29.90 in 10.0 mi SE 10.4 mph - N/A   Clear
9:15 AM 42.8 °F 36.2 °F 35.6 °F 76% 29.91 in 10.0 mi SSE 12.7 mph - N/A   Clear
9:35 AM 46.4 °F 39.8 °F 37.4 °F 71% 29.90 in 10.0 mi SSE 16.1 mph 20.7 mph N/A   Clear
9:55 AM 50.0 °F - 39.2 °F 66% 29.90 in 10.0 mi South 10.4 mph 23.0 mph N/A   Clear
10:15 AM 50.0 °F - 39.2 °F 66% 29.90 in 10.0 mi SSE 13.8 mph - N/A   Clear
10:35 AM 53.6 °F - 41.0 °F 62% 29.89 in 10.0 mi South 17.3 mph 26.5 mph N/A   Clear
10:55 AM 53.6 °F - 41.0 °F 62% 29.88 in 10.0 mi South 17.3 mph 29.9 mph N/A   Clear
11:15 AM 55.4 °F - 41.0 °F 58% 29.88 in 10.0 mi South 18.4 mph 28.8 mph N/A   Clear
11:35 AM 59.0 °F - 41.0 °F 51% 29.87 in 10.0 mi SSE 19.6 mph 29.9 mph N/A   Clear
11:55 AM 59.0 °F - 41.0 °F 51% 29.86 in 10.0 mi South 19.6 mph 25.3 mph N/A   Clear
12:15 PM 60.8 °F - 41.0 °F 48% 29.85 in 10.0 mi South 19.6 mph 27.6 mph N/A   Clear
12:35 PM 62.6 °F - 41.0 °F 45% 29.83 in 10.0 mi South 15.0 mph 25.3 mph N/A   Clear
12:55 PM 62.6 °F - 41.0 °F 45% 29.82 in 10.0 mi SSE 23.0 mph 28.8 mph N/A   Clear
1:15 PM 62.6 °F - 41.0 °F 45% 29.81 in 10.0 mi South 16.1 mph 24.2 mph N/A   Clear
1:35 PM 64.4 °F - 41.0 °F 42% 29.80 in 10.0 mi SE 17.3 mph 23.0 mph N/A   Clear
1:55 PM 64.4 °F - 41.0 °F 42% 29.78 in 10.0 mi South 20.7 mph 27.6 mph N/A   Clear
2:15 PM 64.4 °F - 41.0 °F 42% 29.77 in 10.0 mi SSE 17.3 mph 25.3 mph N/A   Clear
2:35 PM 64.4 °F - 41.0 °F 42% 29.76 in 10.0 mi SSE 12.7 mph 24.2 mph N/A   Clear
2:55 PM 64.4 °F - 41.0 °F 42% 29.75 in 10.0 mi SSE 17.3 mph 24.2 mph N/A   Clear
3:15 PM 64.4 °F - 41.0 °F 42% 29.74 in 10.0 mi SSE 16.1 mph 24.2 mph N/A   Clear
3:35 PM 64.4 °F - 41.0 °F 42% 29.73 in 10.0 mi SSE 17.3 mph - N/A   Clear
3:55 PM 64.4 °F - 41.0 °F 42% 29.73 in 10.0 mi SE 16.1 mph 21.9 mph N/A   Clear
4:15 PM 64.4 °F - 41.0 °F 42% 29.73 in 10.0 mi SSE 16.1 mph 23.0 mph N/A   Scattered Clouds
4:35 PM 64.4 °F - 41.0 °F 42% 29.73 in 10.0 mi SSE 16.1 mph 23.0 mph N/A   Scattered Clouds
4:55 PM 64.4 °F - 41.0 °F 42% 29.73 in 10.0 mi SSE 15.0 mph 23.0 mph N/A   Clear
5:15 PM 62.6 °F - 41.0 °F 45% 29.72 in 10.0 mi SSE 16.1 mph 20.7 mph N/A   Clear
5:35 PM 62.6 °F - 39.2 °F 42% 29.72 in 10.0 mi SE 15.0 mph 19.6 mph N/A   Clear
5:55 PM 60.8 °F - 41.0 °F 48% 29.73 in 10.0 mi SSE 10.4 mph - N/A   Clear
6:15 PM 57.2 °F - 39.2 °F 51% 29.76 in 10.0 mi SSE 6.9 mph - N/A   Clear
6:35 PM 55.4 °F - 39.2 °F 54% 29.77 in 10.0 mi SE 5.8 mph - N/A   Clear
6:55 PM 55.4 °F - 39.2 °F 54% 29.76 in 10.0 mi SE 6.9 mph - N/A   Clear
7:15 PM 55.4 °F - 39.2 °F 54% 29.77 in 10.0 mi ESE 4.6 mph - N/A   Clear
7:35 PM 53.6 °F - 39.2 °F 58% 29.76 in 10.0 mi SE 4.6 mph - N/A   Clear
7:55 PM 51.8 °F - 37.4 °F 58% 29.78 in 10.0 mi South 3.5 mph - N/A   Clear
8:15 PM 51.8 °F - 37.4 °F 58% 29.79 in 10.0 mi SE 4.6 mph - N/A   Clear
8:35 PM 50.0 °F - 37.4 °F 62% 29.79 in 10.0 mi East 3.5 mph - N/A   Clear
8:55 PM 51.8 °F - 39.2 °F 62% 29.79 in 10.0 mi NE 4.6 mph - N/A   Mostly Cloudy
9:15 PM 51.8 °F - 39.2 °F 62% 29.78 in 10.0 mi ENE 8.1 mph - N/A   Overcast
9:35 PM 51.8 °F - 41.0 °F 67% 29.78 in 10.0 mi East 9.2 mph - N/A   Overcast
9:55 PM 51.8 °F - 41.0 °F 67% 29.78 in 10.0 mi East 8.1 mph - N/A   Overcast
10:15 PM 51.8 °F - 41.0 °F 67% 29.77 in 10.0 mi East 9.2 mph - N/A   Overcast
10:35 PM 51.8 °F - 41.0 °F 67% 29.78 in 10.0 mi East 8.1 mph - N/A   Overcast
10:55 PM 50.0 °F - 41.0 °F 71% 29.78 in 10.0 mi ENE 6.9 mph - N/A   Overcast
11:15 PM 50.0 °F - 41.0 °F 71% 29.78 in 10.0 mi ENE 4.6 mph - N/A   Overcast
11:35 PM 50.0 °F - 41.0 °F 71% 29.78 in 10.0 mi ENE 6.9 mph - N/A   Overcast
11:55 PM 50.0 °F - 41.0 °F 71% 29.78 in 10.0 mi East 8.1 mph - N/A   Mostly Cloudy